x

9449880 - Friday Harbor, Wa (frdw1) Weather Station

9:36 - Fri 21st Nov 2014 All times are PST. -8 hours from GMT.

  • Wind
    13mph, 22mph gusts
  • Sea Temp 50°f
  • Luft Temp 51°f
  • Sea Pressure 1003.2mb
  • 9449880 - Friday Harbor, Wa
  • 9449880 - Friday Harbor, Wa

More Historic Weather Station data

Upgrade to MSW Pro to gain access to the past 30 days of data for over 8000 Wavebouys and Weather Stations around the globe.

Join Pro

Comparision Forecast

View Surf forecast
   
Fr 11/21 9:36 13 22 mph 1003.2mb 50f 51f
9:30 11 24 mph 1003.4mb 50f 50f
9:24 15 22 mph 1003.5mb 50f 50f
9:18 13 20 mph 1003.6mb 50f 50f
9:12 15 21 mph 1003.7mb 50f 50f
9:06 14 23 mph 1003.9mb 50f 50f
9:00 10 20 mph 1003.9mb 50f 50f
8:36 11 21 mph 1004.3mb 50f 50f
8:30 13 18 mph 1004.4mb 50f 50f
8:24 14 21 mph 1004.5mb 50f 50f
8:18 13 20 mph 1004.7mb 50f 50f
8:12 9 17 mph 1004.6mb 50f 50f
8:06 13 17 mph 1004.6mb 50f 50f
8:00 13 20 mph 1004.7mb 50f 50f
7:36 11 16 mph 1005.1mb 50f 50f
7:30 10 14 mph 1005.2mb 50f 50f
7:24 10 16 mph 1005.2mb 50f 50f
7:18 10 17 mph 1005.4mb 50f 50f
7:12 11 15 mph 1005.6mb 50f 50f
7:06 10 16 mph 1005.6mb 50f 50f
7:00 13 18 mph 1005.6mb 50f 50f
6:36 9 14 mph 1006.1mb 50f 50f
6:30 8 14 mph 1006.3mb 50f 50f
6:24 9 14 mph 1006.4mb 50f 50f
6:18 6 14 mph 1006.6mb 50f 50f
6:12 9 15 mph 1006.8mb 50f 50f
6:06 9 15 mph 1006.9mb 50f 50f
6:00 9 13 mph 1006.8mb 50f 50f
5:36 8 15 mph 1006.9mb 50f 51f
5:30 8 13 mph 1007mb 50f 51f
5:24 8 17 mph 1007.1mb 50f 51f
5:18 7 13 mph 1007.1mb 50f 50f
5:12 7 11 mph 1007.3mb 50f 50f
5:06 8 15 mph 1007.6mb 50f 50f
5:00 6 9 mph 1007.8mb 50f 49f
4:36 5 7 mph 1008.3mb 50f 49f
4:30 5 7 mph 1008.4mb 50f 49f
4:24 5 7 mph 1008.3mb 50f 49f
4:18 5 7 mph 1008.3mb 50f 49f
4:12 5 8 mph 1008.3mb 50f 49f
4:06 3 8 mph 1008.5mb 50f 49f
4:00 5 6 mph 1008.5mb 50f 49f
3:36 6 9 mph 1008.9mb 50f 51f
3:30 6 11 mph 1009.1mb 50f 51f
3:24 7 14 mph 1009.2mb 50f 51f
3:18 6 8 mph 1009.3mb 50f 51f
3:12 7 9 mph 1009.4mb 50f 51f
3:06 6 10 mph 1009.4mb 50f 51f
3:00 8 13 mph 1009.5mb 50f 51f
2:36 5 7 mph 1009.7mb 50f 50f
2:30 6 8 mph 1009.9mb 50f 50f
2:24 5 7 mph 1010mb 50f 50f
2:18 5 7 mph 1010mb 50f 50f
2:12 5 8 mph 1010mb 50f 50f
2:06 7 8 mph 1009.9mb 50f 50f
2:00 6 8 mph 1009.8mb 50f 50f
1:36 5 6 mph 1010.3mb 50f 50f
1:30 6
mph
1010.2mb 50f 50f
1:24 6
mph
1010.3mb 50f 50f
1:18 6
mph
1010.3mb 50f 50f
1:12 5 7 mph 1010.3mb 50f 50f
1:06 6 8 mph 1010.3mb 50f 50f
1:00 6 7 mph 1010.3mb 50f 50f
12:36 7 8 mph 1010.6mb 50f 50f
12:30 8 9 mph 1010.7mb 50f 50f
12:24 7 9 mph 1010.8mb 50f 50f
12:18 7 9 mph 1010.9mb 50f 50f
12:12 7 9 mph 1010.9mb 50f 50f
12:06 7 9 mph 1011mb 50f 50f
12:00 7 9 mph 1011mb 50f 50f
Do 11/20 11:36 5 7 mph 1011.4mb 50f 50f
11:30 7
mph
1011.4mb 50f 50f
11:24 5 6 mph 1011.4mb 50f 50f
11:18 5 6 mph 1011.5mb 50f 50f
11:12 6
mph
1011.5mb 50f 50f
11:06 6 7 mph 1011.5mb 50f 50f
11:00 5 6 mph 1011.6mb 50f 50f
10:36 3 5 mph 1011.9mb 50f 50f
10:30 5
mph
1011.9mb 50f 50f
10:24 3 5 mph 1012mb 50f 50f
10:18 5 6 mph 1012mb 50f 50f
10:12 3 6 mph 1012mb 50f 50f
10:06 3 5 mph 1012mb 50f 50f
10:00 3 6 mph 1012mb 50f 50f
9:36 5 7 mph 1012.2mb 50f 50f
9:30 3 6 mph 1012.2mb 50f 50f
9:24 3 5 mph 1012.3mb 50f 50f
9:18 3 6 mph 1012.3mb 50f 50f
9:12 3 6 mph 1012.4mb 50f 50f
9:06 5
mph
1012.4mb 50f 50f
9:00 2 5 mph 1012.4mb 50f 50f
8:36 6 7 mph 1012.4mb 50f 50f
8:30 6 7 mph 1012.3mb 50f 50f
8:24 6 7 mph 1012.4mb 50f 50f
8:18 6 8 mph 1012.3mb 50f 50f
8:12 6 8 mph 1012.4mb 50f 50f
8:06 7 9 mph 1012.4mb 50f 50f
8:00 6 8 mph 1012.4mb 50f 50f
7:36 6 7 mph 1012.4mb 50f 50f
7:30 6 7 mph 1012.4mb 50f 50f
7:24 7 9 mph 1012.3mb 50f 50f
7:18 7 8 mph 1012.4mb 50f 50f
7:12 6 7 mph 1012.5mb 50f 50f
7:06 5 7 mph 1012.4mb 50f 50f
7:00 7 8 mph 1012.4mb 50f 50f
6:36 6 8 mph 1012.7mb 50f 50f
6:30 5 7 mph 1012.7mb 50f 50f
6:24 6 8 mph 1012.7mb 50f 49f
6:18 3 5 mph 1012.7mb 50f 49f
6:12 3 6 mph 1012.8mb 50f 49f
6:06 6 7 mph 1012.8mb 50f 49f
6:00 5 6 mph 1012.8mb 50f 49f
5:36 2 3 mph 1013mb 50f 49f
5:30 1 3 mph 1013mb 50f 49f
5:24 2 6 mph 1013.1mb 50f 49f
5:18 5 6 mph 1013.1mb 50f 49f
5:12 3 6 mph 1013.1mb 50f 49f
5:06 3 5 mph 1013.1mb 50f 49f
5:00 2 3 mph 1013.2mb 50f 49f
4:36 1 2 mph 1013.4mb 50f 49f
4:30 2 3 mph 1013.4mb 50f 49f
4:24 2 3 mph 1013.4mb 50f 49f
4:18 2
mph
1013.4mb 50f 49f
4:12 1 2 mph 1013.4mb 50f 49f
4:06 2 3 mph 1013.3mb 50f 49f
4:00 2 3 mph 1013.3mb 50f 49f
3:36 6 8 mph 1013.1mb 50f 50f
3:30 6 10 mph 1013.2mb 50f 50f
3:24 7 9 mph 1013.1mb 50f 50f
3:18 7 9 mph 1013mb 50f 50f
3:12 7 9 mph 1013mb 50f 50f
3:06 6 7 mph 1013.1mb 50f 50f
3:00 6 8 mph 1013.2mb 50f 50f
2:36 7 8 mph 1013.1mb 50f 50f
2:30 7 8 mph 1013.1mb 50f 50f
2:24 6 7 mph 1013.2mb 50f 50f
2:18 6 8 mph 1013.3mb 50f 50f
2:12 6 7 mph 1013.3mb 50f 50f
2:06 6 7 mph 1013.4mb 50f 50f
2:00 6 7 mph 1013.4mb 50f 50f
1:36 5 6 mph 1013.5mb 50f 49f
1:30 5 7 mph 1013.6mb 50f 49f
1:24 6 8 mph 1013.4mb 50f 49f
1:18 5 6 mph 1013.7mb 50f 49f
1:12 3 5 mph 1013.9mb 50f 49f
1:06 5 6 mph 1013.9mb 50f 49f
1:00 5
mph
1013.9mb 50f 49f
12:36 3 5 mph 1014mb 50f 49f
12:30 3 5 mph 1014mb 50f 49f
12:24 5
mph
1013.9mb 50f 49f
12:18 5
mph
1013.9mb 50f 49f
12:12 3 5 mph 1014mb 50f 49f
12:06 3 5 mph 1014mb 50f 49f
12:00 3 5 mph - - 49f
11:36 5
mph
1014.1mb 50f 49f
11:30 5 7 mph 1014.1mb 50f 49f
11:24 3 7 mph 1014.1mb 50f 48f
11:18 5 6 mph 1014.1mb 50f 48f
11:12 6 7 mph 1014.1mb 50f 48f
11:06 6 8 mph 1014.2mb 50f 48f
11:00 6 8 mph 1014.2mb 50f 48f
10:54 7 9 mph 1014.2mb 50f 48f
10:48 7 9 mph 1014.3mb 50f 48f
10:36 6 9 mph 1014.3mb 50f 48f
10:30 7 8 mph 1014.3mb 50f 48f
10:24 7 9 mph 1014.3mb 50f 48f
10:18 7 9 mph 1014.3mb 50f 48f
10:12 6 8 mph 1014.2mb 50f 48f
10:06 7 9 mph 1014.1mb 50f 48f
10:00 7 10 mph 1014.1mb 50f 48f
9:54 5 8 mph 1014.1mb 50f 48f
9:48 5 8 mph 1014.1mb 50f 48f
9:36 7 8 mph 1014.2mb 50f 47f
9:30 7 9 mph 1014.2mb 50f 47f
9:24 7 9 mph 1014.3mb 50f 47f
9:18 6 8 mph 1014.3mb 50f 47f
9:12 6 8 mph 1014.4mb 50f 47f
9:06 5 8 mph 1014.3mb 50f 47f
9:00 7 9 mph 1014.3mb 50f 47f
8:54 7 9 mph 1014.3mb 50f 47f
8:48 6 10 mph 1014.3mb 50f 47f
8:36 6 9 mph 1014.2mb 50f 47f
8:30 6 9 mph 1014.2mb 50f 47f
8:24 7 9 mph 1014mb 50f 47f
8:18 5 6 mph 1014.1mb 50f 47f
8:12 5 8 mph - - 47f
8:06 6 8 mph 1014.1mb 50f 47f
8:00 3 6 mph 1014.1mb 50f 47f
7:54 3 7 mph 1014.1mb 50f 47f
7:48 3 7 mph - - 47f
7:36 6 8 mph 1014mb 50f 47f
7:30 7 9 mph 1013.9mb 50f 46f
7:24 6 8 mph 1013.7mb 50f 47f
7:18 6 9 mph 1013.7mb 50f 47f
7:12 6 8 mph 1013.8mb 50f 47f
7:06 6 8 mph 1013.7mb 50f 47f
7:00 7 9 mph 1013.7mb 50f 47f
6:54 8 11 mph 1013.7mb 50f 46f
6:48 8 10 mph 1013.6mb 50f 46f
6:36 9 10 mph 1013.5mb 50f 47f
6:30 7 11 mph 1013.5mb 50f 47f
6:24 8 10 mph 1013.4mb 50f 46f
6:18 7 8 mph 1013.4mb 50f 47f
6:12 7 9 mph 1013.4mb 50f 46f
6:06 5 7 mph 1013.3mb 50f 46f
6:00 6 8 mph 1013.4mb 50f 46f
5:54 5 9 mph 1013.4mb 50f 46f
5:48 5 9 mph 1013.4mb 50f 47f
5:36 8 10 mph 1013.2mb 50f 46f
5:30 7 11 mph 1013.2mb 50f 46f
5:24 6 9 mph 1013.2mb 50f 47f
5:18 7 10 mph 1013.2mb 50f 46f
5:12 8 13 mph 1013.2mb 50f 46f
5:06 10 18 mph 1013.1mb 50f 46f
5:00 8 13 mph 1013mb 50f 46f
4:54 9 13 mph 1012.9mb 50f 46f
4:48 10 14 mph 1012.9mb 50f 46f
4:36 9 13 mph 1012.8mb 50f 46f
4:30 8 13 mph 1012.7mb 50f 47f
4:24 9 14 mph 1012.7mb 50f 46f
4:18 9 14 mph 1012.7mb 50f 46f
4:12 9 15 mph 1012.6mb 50f 46f
4:06 9 17 mph 1012.5mb 50f 46f
4:00 9 21 mph 1012.3mb 50f 46f
3:54 13 18 mph 1012.5mb 50f 46f
3:48 11 17 mph 1012.5mb 50f 47f
3:36 10 20 mph 1012.1mb 50f 47f
3:30 10 23 mph 1012.1mb 50f 47f
3:24 14 22 mph 1011.9mb 50f 47f
3:18 16 23 mph 1011.8mb 50f 47f
3:12 15 22 mph 1011.8mb 50f 47f
3:06 15 21 mph 1011.7mb 50f 47f
3:00 15 21 mph 1011.6mb 50f 47f
2:54 13 20 mph 1011.5mb 50f 47f
2:48 13 21 mph 1011.5mb 50f 47f
2:36 9 17 mph 1011.3mb 50f 48f
2:30 11 16 mph 1011mb 50f 48f
2:24 10 16 mph 1010.9mb 50f 48f
2:18 10 14 mph 1010.9mb 50f 48f
2:12 9 18 mph 1010.8mb 50f 49f
2:06 10 14 mph 1010.7mb 50f 49f
2:00 8 14 mph 1010.7mb 50f 49f
1:54 10 20 mph 1010.7mb 50f 49f
1:48 10 18 mph 1010.6mb 50f 49f
1:36 8 14 mph 1010.4mb 50f 50f
1:30 9 14 mph 1010.3mb 50f 50f
1:24 9 16 mph 1010.2mb 50f 50f
1:18 6 13 mph 1010.3mb 50f 50f
1:12 9 14 mph 1010.2mb 50f 50f
1:06 5 13 mph 1010.2mb 50f 50f
1:00 6 9 mph 1010mb 50f 50f
12:54 3 6 mph 1009.9mb 50f 50f
12:48 2 5 mph 1009.9mb 50f 49f
12:36 1 3 mph 1009.8mb 50f 49f
12:30 3 6 mph 1009.8mb 50f 49f
12:24 5 6 mph 1009.8mb 50f 49f
12:18 3 6 mph 1009.8mb 50f 49f
12:12 5 7 mph 1009.8mb 50f 49f
12:06  -  2 mph 1009.8mb 50f 49f
12:00 2 5 mph 1009.8mb 50f 49f
Mi 11/19 11:54 2 5 mph 1009.8mb 50f 49f
11:48 3 6 mph 1009.8mb 50f 50f
11:36 6 8 mph 1009.7mb 50f 50f
11:30 5 6 mph 1009.7mb 50f 50f
11:24 3 6 mph 1009.6mb 50f 49f
11:18 6 8 mph 1009.5mb 50f 49f
11:12 2 3 mph 1009.6mb 50f 49f
11:06 2 5 mph 1009.6mb 50f 49f
11:00 5 7 mph 1009.5mb 50f 49f
10:54 6
mph
1009.5mb 50f 49f
10:48 6 7 mph 1009.5mb 50f 49f
10:36 5 6 mph 1009.6mb 50f 49f
10:30 3 6 mph 1009.6mb 50f 49f
10:24 5 6 mph 1009.6mb 50f 48f
10:18 2 3 mph 1009.6mb 50f 47f
10:12  -  2 mph 1009.7mb 50f 47f
10:06 2 3 mph 1009.6mb 50f 48f
10:00 1 6 mph 1009.6mb 50f 48f
9:54 3 7 mph 1009.6mb 50f 47f
9:48 3 6 mph 1009.5mb 50f 47f
9:36 3 7 mph 1009.5mb 50f 47f
9:30 5 9 mph 1009.5mb 50f 47f
9:24 5 8 mph 1009.6mb 50f 46f
9:18 3 6 mph 1009.6mb 50f 46f
9:12 3 7 mph 1009.5mb 50f 47f
9:06 5 6 mph 1009.6mb 50f 46f
9:00 3 5 mph 1009.6mb 50f 46f
8:54 5 6 mph 1009.5mb 50f 46f
8:48 3 6 mph 1009.6mb 50f 46f
8:36 2 6 mph 1009.7mb 50f 46f
8:30 1 5 mph 1009.8mb 50f 45f
8:24  -  3 mph 1009.9mb 50f 45f
8:18  -  1 mph 1009.9mb 50f 45f
8:12  -  2 mph 1009.9mb 50f 45f
8:06  -  3 mph 1009.9mb 50f 45f
8:00 2 3 mph 1010mb 50f 45f
7:54 2 3 mph 1009.9mb 50f 45f
7:48  -  2 mph 1009.9mb 50f 45f
7:36  -  1 mph 1009.9mb 50f 45f
7:30  -  mph 1010mb 50f 45f
7:24  -  mph 1010.1mb 50f 45f
7:18  -  mph 1010mb 50f 45f
7:12  -  mph 1010.1mb 50f 45f
7:06  -  1 mph 1010mb 50f 45f
7:00  -  1 mph 1010mb 50f 45f
6:54  -  1 mph 1010mb 50f 45f
6:48  -  2 mph 1009.9mb 50f 45f
6:36 1 2 mph 1010mb 50f 45f
6:30  -  1 mph 1010.1mb 49f 45f
6:24 3 6 mph 1010mb 49f 46f
6:18 3 6 mph 1009.8mb 50f 45f
6:12 2 5 mph 1009.8mb 50f 45f
6:06  -  2 mph 1009.8mb 50f 45f
6:00  -  3 mph 1009.8mb 50f 45f
5:54 2 3 mph 1009.8mb 50f 45f
5:48  -  6 mph 1009.8mb 50f 45f
5:36  -  2 mph 1009.9mb 50f 44f
5:30 1 2 mph 1009.9mb 50f 44f
5:24  -  2 mph 1010mb 50f 45f
5:18  -  2 mph 1010mb 50f 45f
5:12 1 2 mph 1010.1mb 50f 44f
5:06  -  1 mph 1010.4mb 50f 44f
5:00  -  1 mph 1010.4mb 50f 44f
4:54  -  1 mph 1010.3mb 50f 44f
4:48  -  1 mph 1010.4mb 50f 45f
4:36  -  1 mph 1010.3mb 50f 45f
4:30  -  1 mph 1010.4mb 50f 45f
4:24 1 3 mph 1010.3mb 50f 45f
4:18 2 5 mph 1010.3mb 50f 46f
4:12 2 6 mph 1010.2mb 50f 46f
4:06 1 5 mph 1010.4mb 50f 46f
4:00 2 5 mph 1010.4mb 50f 46f
3:54  -  3 mph - - 46f
3:48 2 5 mph 1010.6mb 50f 46f
3:36  -  2 mph 1010.9mb 50f 46f
3:30  -  2 mph 1011mb 50f 47f
3:24  -  3 mph 1011mb 50f 47f
3:18 1 6 mph 1011mb 50f 46f
3:12 5 6 mph 1011mb 50f 46f
3:06 2 5 mph 1011.1mb 50f 47f
3:00 1 3 mph 1011.2mb 50f 47f
2:54 1 3 mph 1011.2mb 50f 47f
2:48 3 5 mph 1011.3mb 50f 47f
2:36 2 5 mph 1011.4mb 50f 47f
2:30 1 3 mph 1011.4mb 50f 47f
2:24 1 5 mph 1011.4mb 50f 47f
2:18 1 3 mph 1011.4mb 50f 47f
2:12 2 6 mph 1011.4mb 50f 48f
2:06 3 6 mph 1011.4mb 50f 48f
2:00 1 5 mph 1011.5mb 50f 49f
1:54 1 5 mph 1011.6mb 50f 49f
1:48 2 3 mph 1011.7mb 50f 48f
1:36 2 3 mph 1011.8mb 50f 48f
1:30  -  3 mph 1011.9mb 50f 48f
1:24 1 2 mph 1012mb 50f 49f
1:18  -  3 mph 1012.1mb 50f 49f
1:12  -  2 mph - - 50f
1:06  -  2 mph 1012.3mb 50f 50f
1:00  -  5 mph 1012.5mb 50f 49f
12:54  -  2 mph 1012.6mb 50f 50f
12:48  -  3 mph 1012.8mb 50f 51f
12:36 2 3 mph 1013mb 50f 50f
12:30 1 5 mph 1013mb 50f 50f
12:24 2 5 mph 1013.1mb 50f 49f
12:18 1 3 mph 1013.1mb 50f 49f
12:12  -  2 mph - - 49f
12:06 2 6 mph 1013.4mb 50f 48f
12:00 2 6 mph 1013.5mb 50f 48f
11:54 2 6 mph 1013.6mb 50f 48f
11:48 3 6 mph 1013.7mb 50f 48f
11:36 5 9 mph 1013.8mb 49f 48f
11:30 8 10 mph 1014mb 49f 47f
11:24 7 11 mph 1014mb 49f 47f
11:18 5 6 mph 1014.2mb 49f 47f
11:12 3 6 mph 1014.2mb 49f 47f
11:06 3 5 mph 1014.3mb 49f 47f
11:00 3 6 mph 1014.4mb 49f 47f
10:54 3 6 mph 1014.4mb 49f 47f
10:48 3 6 mph 1014.5mb 49f 47f
10:36 8 9 mph 1014.7mb 49f 46f
10:30 6 10 mph 1014.8mb 49f 46f
10:24 6 10 mph 1014.9mb 50f 46f
10:18 3 6 mph 1015mb 50f 46f
10:12 3 6 mph 1015mb 50f 46f
10:06 2 6 mph 1015mb 50f 46f
10:00 2 3 mph 1015.1mb 50f 46f
9:54 1 3 mph 1015.1mb 50f 46f
9:48 1 5 mph 1015.2mb 50f 46f
9:36 2 3 mph 1015.3mb 50f 45f
9:30 1 3 mph 1015.5mb 50f 45f
9:24 2 5 mph 1015.5mb 50f 45f
9:18 1 3 mph 1015.5mb 50f 45f
9:12 2 3 mph 1015.6mb 49f 45f
9:06  -  2 mph 1015.7mb 49f 45f
9:00 1 2 mph 1015.7mb 49f 45f
8:54 1 2 mph 1015.7mb 49f 45f
8:48  -  3 mph - - 44f
8:36 1 3 mph 1015.8mb 49f 44f
8:30 3 6 mph 1015.7mb 49f 44f
8:24 1 5 mph 1015.8mb 49f 44f
8:18 3 6 mph 1015.8mb 49f 44f
8:12 1 5 mph 1016mb 49f 44f
8:06  -  6 mph 1016mb 49f 44f
8:00 2 6 mph - - 44f
7:54 1 5 mph 1016mb 49f 44f
7:48 1 5 mph - - 44f
7:36 3 7 mph 1016.2mb 49f 43f
7:30 2 6 mph 1016.3mb 49f 44f
7:24 2 6 mph 1016.4mb 49f 43f
7:18 2 5 mph 1016.4mb 49f 43f
7:12 1 3 mph - - 43f
7:06  -  1 mph 1016.7mb 49f 43f
7:00  -  1 mph - - 42f
6:54  -  1 mph 1016.7mb 49f 42f
6:48  -  2 mph 1016.8mb 49f 42f
6:36 1 2 mph 1016.7mb 49f 43f
6:30  -  1 mph 1016.7mb 49f 43f
6:24 1 2 mph 1016.6mb 49f 43f
6:18  -  1 mph 1016.6mb 49f 43f
6:12 1 2 mph 1016.6mb 49f 43f
6:06  -  2 mph 1016.6mb 49f 43f
6:00 3 6 mph 1016.7mb 49f 43f
5:54 3 6 mph 1016.7mb 49f 43f
5:48 2 5 mph 1016.7mb 49f 43f
5:36 5 7 mph 1016.8mb 49f 43f
5:30 3 5 mph 1017mb 49f 43f
5:24 1 2 mph 1017.2mb 49f 42f
5:18  -  2 mph 1017.3mb 49f 42f
5:12 1 2 mph 1017.3mb 50f 42f
5:06  -  2 mph 1017.4mb 50f 42f
5:00 2 3 mph 1017.4mb 50f 42f
4:54  -  5 mph 1017.4mb 50f 42f
4:48 3
mph
1017.4mb 50f 42f
4:36  -  2 mph 1017.7mb 50f 42f
4:30 2
mph
1017.6mb 50f 41f
4:24  -  1 mph 1017.7mb 50f 41f
4:18 1 2 mph 1017.7mb 50f 41f
4:12  -  1 mph - - 41f
4:06  -  2 mph 1017.7mb 50f 41f
4:00 3 5 mph 1017.8mb 50f 41f
3:54 2
mph
1017.7mb 50f 42f
3:48  -  mph 1017.7mb 50f 42f
3:36  -  1 mph 1017.9mb 50f 42f
3:30  -  mph 1018.1mb 50f 42f
3:24  -  mph 1018.2mb 50f 41f
3:18  -  mph 1018.3mb 50f 41f
3:12  -  1 mph 1018.3mb 50f 41f
3:06  -  3 mph 1018.4mb 50f 41f
3:00 1 3 mph 1018.5mb 50f 40f
2:54 1 2 mph 1018.5mb 50f 40f
2:48 3 5 mph 1018.5mb 50f 41f
2:36 1 2 mph 1018.5mb 50f 41f
2:30 1
mph
1018.5mb 50f 41f
2:24 1 2 mph 1018.5mb 50f 41f
2:18 1 2 mph 1018.6mb 50f 41f
2:12 1 2 mph 1018.6mb 50f 41f
2:06  -  1 mph 1018.8mb 50f 41f
2:00  -  1 mph 1018.8mb 50f 41f
1:54  -  1 mph 1018.7mb 50f 41f
1:48 1
mph
1018.7mb 50f 41f
1:36  -  2 mph 1018.7mb 50f 41f
1:30  -  1 mph 1018.8mb 50f 41f
1:24  -  1 mph 1018.8mb 50f 42f
1:18  -  2 mph 1018.8mb 50f 42f
1:12  -  1 mph 1018.8mb 50f 41f
1:06  -  mph 1018.8mb 50f 41f
1:00  -  1 mph 1018.7mb 50f 42f
12:54  -  2 mph 1018.8mb 50f 42f
12:48  -  2 mph 1018.7mb 50f 42f
12:36  -  2 mph 1018.9mb 50f 42f
12:30 1 2 mph 1019mb 50f 42f
12:24  -  2 mph 1018.9mb 50f 43f
12:18  -  2 mph 1018.9mb 50f 43f
12:12  -  1 mph 1018.9mb 50f 43f
12:06  -  2 mph 1019mb 50f 43f
12:00  -  2 mph 1019.1mb 50f 43f
Di 11/18 11:54  -  2 mph 1019mb 50f 43f
11:48  -  2 mph 1019.1mb 50f 43f
11:36 2 3 mph 1019.1mb 50f 43f
11:30  -  1 mph 1019mb 50f 43f
11:24  -  1 mph 1019mb 50f 43f
11:18  -  mph 1019mb 50f 42f
11:12  -  2 mph 1019mb 50f 43f
11:06  -  1 mph 1019mb 50f 43f
11:00  -  1 mph 1018.9mb 50f 43f
10:54 1 2 mph 1018.8mb 50f 43f
10:48  -  2 mph 1018.8mb 50f 44f
10:36 2 5 mph 1018.8mb 50f 43f
10:30  -  2 mph 1018.9mb 50f 43f
10:24 1 3 mph 1018.9mb 50f 43f
10:18  -  2 mph 1018.9mb 50f 42f
10:12 2 3 mph 1018.8mb 50f 42f
10:06 3 5 mph 1018.8mb 50f 42f
10:00  -  2 mph 1018.7mb 50f 43f
9:54 2 5 mph 1018.8mb 50f 43f
9:48 2 6 mph 1018.8mb 50f 43f
9:36  -  2 mph 1018.9mb 50f 42f
9:30  -  mph 1018.9mb 50f 42f
9:24  -  1 mph 1019mb 50f 42f
9:18  -  1 mph 1019.1mb 50f 42f
9:12  -  1 mph 1019.1mb 50f 42f
9:06  -  3 mph 1019.2mb 50f 41f
9:00 2 3 mph 1019.2mb 50f 41f
8:54 2 3 mph 1019.1mb 50f 41f
8:48 1 2 mph 1019mb 50f 42f
8:36  -  mph 1019.1mb 50f 41f
8:30  -  2 mph 1019.1mb 50f 41f
8:24 1 2 mph 1019.2mb 50f 41f
8:18 1 2 mph 1019.3mb 50f 42f
8:12  -  2 mph 1019.2mb 50f 41f
8:06 1 2 mph 1019.3mb 50f 41f
8:00 1 2 mph 1019.3mb 50f 42f
7:54 1
mph
1019.2mb 50f 42f
7:48  -  2 mph 1019.3mb 50f 42f
7:36  -  2 mph 1019.3mb 50f 42f
7:30  -  3 mph 1019.4mb 50f 42f
7:24  -  2 mph 1019.4mb 50f 42f
7:18 2 3 mph 1019.3mb 50f 42f
7:12  -  1 mph 1019.4mb 50f 41f
7:06  -  1 mph 1019.4mb 50f 41f
7:00  -  1 mph 1019.4mb 50f 41f
6:54  -  2 mph 1019.4mb 50f 41f
6:48  -  2 mph 1019.4mb 50f 42f
6:36  -  2 mph 1019.5mb 50f 42f
6:30 1 2 mph 1019.5mb 50f 42f
6:24  -  3 mph 1019.6mb 50f 42f
6:18  -  2 mph 1019.7mb 50f 42f
6:12  -  2 mph 1019.7mb 50f 42f
6:06  -  1 mph 1019.8mb 50f 42f
6:00  -  1 mph 1019.8mb 50f 42f
5:54 1 2 mph 1019.8mb 50f 42f
5:48  -  2 mph 1019.8mb 50f 43f
5:36  -  2 mph 1019.8mb 50f 42f
5:30  -  2 mph 1019.9mb 50f 43f
5:24  -  2 mph 1019.9mb 50f 43f
5:18  -  1 mph 1020mb 50f 42f
5:12 1 3 mph 1020mb 50f 42f
5:06 2 3 mph 1020mb 50f 43f
5:00 2 3 mph 1019.9mb 50f 43f
4:54 1 2 mph 1019.9mb 50f 43f
4:48  -  3 mph 1019.9mb 50f 43f
4:36 1 3 mph 1019.9mb 50f 43f
4:30  -  2 mph 1020mb 50f 43f
4:24  -  3 mph 1020mb 50f 43f
4:18  -  2 mph 1020mb 50f 43f
4:12  -  2 mph 1020mb 50f 43f
4:06  -  1 mph 1020.1mb 50f 43f
4:00  -  3 mph 1020.1mb 50f 43f
3:54  -  2 mph 1020mb 50f 43f
3:48 1 3 mph 1019.9mb 50f 44f
3:36  -  2 mph 1019.9mb 50f 44f
3:30  -  2 mph 1019.9mb 50f 44f
3:24  -  2 mph 1020mb 50f 45f
3:18  -  2 mph 1019.9mb 50f 45f
3:12  -  1 mph 1019.9mb 50f 45f
3:06  -  2 mph 1019.9mb 50f 45f
3:00  -  3 mph - - 45f
2:54  -  2 mph 1019.9mb 50f 45f
2:48  -  2 mph 1019.9mb 50f 46f
2:36  -  2 mph 1019.9mb 50f 46f
2:30 1 3 mph 1019.9mb 50f 46f
2:24 1 3 mph 1019.9mb 50f 46f
2:18 1 5 mph 1019.9mb 50f 46f
2:12 2 6 mph 1019.9mb 50f 45f
2:06 3 6 mph 1020mb 50f 45f
2:00 3 6 mph 1020.1mb 50f 45f
1:54 3 6 mph 1020.1mb 50f 46f
1:48 2 3 mph 1020.1mb 50f 46f
1:36 1 2 mph 1020.2mb 50f 46f
1:30 2
mph
1020.1mb 50f 45f
1:24  -  2 mph 1020mb 50f 45f
1:18  -  2 mph 1020.1mb 50f 45f
1:12  -  3 mph 1020.1mb 50f 44f
1:06  -  2 mph 1020.2mb 50f 45f
1:00 1 2 mph 1020.2mb 50f 45f
12:54 1 3 mph 1020.2mb 50f 45f
12:48 2 5 mph 1020.2mb 50f 44f
12:36 1 5 mph 1020.3mb 50f 45f
12:30 3 6 mph 1020.3mb 50f 45f
12:24 5 7 mph 1020.3mb 50f 44f
12:18 5 6 mph 1020.4mb 50f 44f
12:12 5 6 mph 1020.5mb 50f 44f
12:06 5 6 mph 1020.7mb 50f 44f
12:00 5 7 mph 1020.7mb 50f 44f
11:54 3 6 mph 1020.7mb 50f 44f
11:48 5 6 mph 1020.8mb 50f 44f
11:36 3 7 mph 1020.9mb 50f 44f
11:30 5 7 mph 1021mb 50f 44f
11:24 5 6 mph 1021mb 50f 44f
11:18 3 6 mph 1021mb 50f 44f
11:12 2 5 mph 1021.1mb 50f 45f
11:06 1 3 mph 1021.2mb 50f 44f
11:00 3 5 mph - - 44f
10:54 2
mph
1021.3mb 50f 44f
10:48 1 2 mph 1021.4mb 50f 44f
10:36 1 3 mph 1021.5mb 49f 44f
10:30 3 5 mph 1021.5mb 49f 43f
10:24 1 2 mph 1021.5mb 49f 43f
10:18 1 3 mph 1021.5mb 49f 43f
10:12 2
mph
1021.4mb 49f 43f
10:06 2 5 mph 1021.3mb 49f 42f
10:00 3 6 mph 1021.3mb 49f 43f
9:54 2 5 mph 1021.3mb 49f 43f
9:48 3
mph
1021.2mb 49f 43f
9:36 2 3 mph 1021.3mb 49f 43f
9:30 2
mph
1021.4mb 49f 42f
9:24 2 3 mph 1021.4mb 49f 42f
9:18  -  2 mph 1021.3mb 49f 42f
9:12  -  2 mph 1021.4mb 49f 42f
9:06  -  1 mph 1021.5mb 50f 42f
9:00  -  2 mph 1021.5mb 50f 42f
8:54  -  1 mph 1021.3mb 49f 42f
8:48  -  2 mph 1021.3mb 49f 42f
8:30  -  mph 1021.1mb 49f -
8:24  -  mph 1021mb 49f -
8:18  -  mph 1021.1mb 49f -
8:12  -  mph 1021.1mb 49f -
8:06  -  mph 1021.3mb 49f -
8:00  -  mph 1021.2mb 49f -
7:54  -  mph 1021.3mb 49f -
7:48  -  mph 1021.3mb 49f -
7:36  -  3 mph 1021.3mb 49f 40f
7:30 2 6 mph 1021.2mb 49f 40f
7:24 3 6 mph 1021.1mb 49f 41f
7:18 3 8 mph 1021.2mb 49f 41f
7:12 5 8 mph 1021.1mb 49f 41f
7:06 7 9 mph 1021.1mb 50f 41f
7:00 3 7 mph 1021.2mb 50f 41f
6:54 1 3 mph 1021.2mb 50f 41f
6:48 2 5 mph 1021.1mb 50f 41f
6:36 2 5 mph 1021.1mb 50f 41f
6:30 1 3 mph 1021.1mb 50f 41f
6:24 2 7 mph 1021.1mb 50f 41f
6:18 2 7 mph 1021mb 50f 41f
6:12 2 6 mph 1021mb 50f 41f
6:06 2 5 mph 1020.9mb 50f 41f
6:00 2 6 mph 1020.9mb 50f 41f
5:54  -  3 mph 1021mb 50f 41f
5:48 1 6 mph 1020.9mb 50f 41f
5:36 2 6 mph 1020.9mb 50f 41f
5:30 2 5 mph 1021mb 50f 41f
5:24 1 3 mph 1021mb 50f 41f
5:18  -  5 mph 1020.9mb 50f 41f
5:12  -  1 mph 1020.9mb 50f 41f
5:06  -  3 mph 1020.8mb 50f 41f
5:00 1 5 mph 1020.8mb 50f 40f
4:54 1 3 mph 1020.9mb 50f 40f
4:48  -  3 mph 1021mb 50f 40f
4:36 2 6 mph 1021mb 50f 40f
4:30  -  3 mph 1021.1mb 50f 40f
4:24 2 6 mph 1021.1mb 50f 40f
4:18  -  1 mph 1021.1mb 50f 40f
4:12  -  1 mph 1021mb 50f 40f
4:06  -  2 mph 1021mb 50f 40f
4:00  -  1 mph 1021mb 50f 40f
3:54  -  3 mph 1021.1mb 50f 40f
3:48 1 3 mph 1021.1mb 50f 40f
3:36 1 3 mph 1021.1mb 50f 41f
3:30 2 5 mph 1021.2mb 50f 41f
3:24 2 3 mph 1021.4mb 50f 40f
3:18  -  5 mph 1021.3mb 50f 40f
3:12 2 3 mph 1021.4mb 50f 40f
3:06 1 3 mph 1021.4mb 50f 40f
3:00 1 3 mph 1021.5mb 50f 40f
2:54  -  2 mph 1021.5mb 50f 40f
2:48  -  3 mph 1021.6mb 50f 40f
2:36  -  2 mph 1021.7mb 50f 39f
2:30  -  1 mph 1021.7mb 50f 38f
2:24 2 3 mph 1021.7mb 50f 38f
2:18  -  2 mph 1021.8mb 50f 38f
2:12 1 2 mph 1021.8mb 50f 38f
2:06 2 3 mph 1021.8mb 50f 38f
2:00 3 5 mph 1021.9mb 50f 38f
1:54 2 3 mph 1021.9mb 50f 39f
1:48  -  2 mph 1021.7mb 50f 40f
1:36 1 5 mph 1021.9mb 50f 38f
1:30 2 3 mph 1021.9mb 50f 38f
1:24 1 3 mph 1021.8mb 50f 38f
1:18 2 3 mph 1021.9mb 50f 38f
1:12 2 3 mph 1021.9mb 50f 39f
1:06 1 2 mph 1022mb 50f 38f
1:00 1 2 mph 1022.1mb 50f 39f
12:54  -  3 mph 1022.2mb 50f 39f
12:48 1 2 mph 1022.3mb 50f 39f
12:36  -  3 mph 1022.6mb 50f 39f
12:30  -  3 mph 1022.6mb 50f 40f
12:24  -  1 mph 1022.7mb 50f 40f
12:18  -  2 mph 1022.7mb 50f 40f
12:12  -  2 mph 1022.7mb 50f 41f
12:06  -  1 mph 1022.7mb 50f 40f
12:00  -  2 mph 1022.8mb 50f 40f
Mo 11/17 11:54  -  3 mph 1023mb 50f 41f
11:48 1 3 mph 1023.1mb 50f 41f
11:36 1 7 mph 1023mb 50f 40f
11:30 1 2 mph 1023mb 50f 41f
11:24 1 3 mph 1023.2mb 50f 41f
11:18  -  2 mph 1023.2mb 50f 41f
11:12  -  2 mph 1023.3mb 50f 41f
11:06  -  2 mph 1023.4mb 50f 41f
11:00 1 3 mph 1023.3mb 50f 41f
10:54 1 5 mph 1023.3mb 50f 40f
10:48 2 5 mph 1023.2mb 50f 41f
10:36 1 5 mph 1023.3mb 50f 40f
10:30  -  2 mph 1023.4mb 50f 40f
10:24 1 2 mph 1023.4mb 50f 41f
10:18  -  3 mph 1023.5mb 50f 40f
10:12 1 3 mph 1023.4mb 50f 41f
10:06 1 3 mph 1023.5mb 50f 41f
10:00 1 5 mph 1023.6mb 50f 40f
9:54 2 5 mph 1023.6mb 50f 41f
9:48 1 3 mph 1023.6mb 50f 41f
9:36 1 5 mph 1023.7mb 50f 41f
9:30 2 5 mph 1023.8mb 50f 40f
9:24  -  1 mph 1023.8mb 50f 40f
9:18  -  2 mph 1023.8mb 50f 40f
9:12  -  1 mph 1023.8mb 50f 41f
9:06  -  3 mph 1023.8mb 50f 41f
9:00  -  2 mph 1023.7mb 50f 41f
8:54 1 3 mph 1023.7mb 50f 41f
8:48 1 3 mph 1023.7mb 50f 41f
8:36  -  5 mph 1023.9mb 50f 41f
8:30  -  2 mph 1024.1mb 50f 41f
8:24  -  2 mph 1024.2mb 50f 40f
8:18 1 2 mph 1024.2mb 50f 41f
8:12  -  2 mph 1024.2mb 50f 41f
8:06 1 2 mph 1024.2mb 50f 41f
8:00  -  3 mph 1024mb 50f 41f
7:54  -  1 mph 1024.2mb 50f 41f
7:48  -  3 mph 1024.2mb 50f 41f
7:36  -  2 mph 1024.2mb 50f 41f
7:30  -  2 mph 1024.2mb 50f 41f
7:24  -  2 mph 1024.4mb 50f 41f
7:18  -  3 mph 1024.4mb 50f 41f
7:12 1 2 mph 1024.5mb 50f 41f